Orbital Elements
Epoch 2011 July 18.0 TT = JDT 2455760.5
T 2011 June 29.37513 TT MPC
q 6.7800936 (2000.0) P Q
z +0.0002992 Peri. 135.92020 +0.60406108 +0.51275462
+/-0.0000033 Node 142.24564 -0.63651770 -0.15021332
e 0.9979712 Incl. 94.85996 +0.47953668 -0.84529205
From 58 observations 2011 Aug. 17-2012 June 25, mean residual 0".4.
|